Regional Weather Roundup
Issued by NWS

Home | Current Version | Previous Version | Graphics & Text | Print | Product List | Glossary On
Versions: 1 2 3 4 5 6 7 8 9 10 11 12 13 14 15 16 17 18 19 20 21 22 23 24 25 26 27 28 29 30 31 32 33 34 35 36 37 38 39 40 41 42 43 44 45 46 47 48 49 50
609
ASUS45 KSLC 171510
RWRUT

UTAH REGIONAL WEATHER ROUNDUP
NATIONAL WEATHER SERVICE SALT LAKE CITY UT
800 AM MST TUE JAN 17 2017

UTZ001>011-023>025-171600-

NORTHERN UTAH

CITY           SKY/WX    TMP DP  RH WIND       PRES   REMARKS
BRIGHAM CITY     N/A      8   3  82 N5        30.31R WCI  -1
DUGWAY         PTCLDY    12  10  90 NE3       30.29
HILL AFB       PTCLDY     9   2  71 E17       30.26R WCI  -9
LOGAN          PTCLDY    -2  -4  91 CALM      30.32R FOG
OGDEN          PTCLDY    10   4  76 S8        30.27R WCI  -2
SALT LAKE CITY PTCLDY    20  17  88 CALM      30.28R FOG
TOOELE VALLEY  PTCLDY    18  14  86 S7        30.28R WCI   8
WENDOVER       CLOUDY    21  18  86 E3        30.28S
HEBER CITY     PTCLDY   -11 -17  77 CALM      30.24S
WEST JORDAN    PTCLDY    17  17 100 CALM      30.26S

$$

UTZ011>015-024>027-171600-

CENTRAL/NORTHEAST UTAH

CITY           SKY/WX    TMP DP  RH WIND       PRES   REMARKS
PROVO AIRPORT  MOCLDY    16  12  84 CALM      30.29R
MOAB/CANYONLAN CLEAR     28  19  69 CALM      30.18R
DELTA          CLEAR     16  14  93 CALM      30.25R
PRICE          PTCLDY     6   0  76 N8        30.16R WCI  -7
RICHFIELD      CLOUDY    23  21  93 CALM      30.25
ROOSEVELT      CLOUDY    16  12  86 W5        30.30R FOG     WCI   9
VERNAL         CLOUDY    17  15  92 S3        30.28R FOG

$$

UTZ013>016-019>022-027-171600-

SOUTHERN UTAH

CITY           SKY/WX    TMP DP  RH WIND       PRES   REMARKS
BRYCE CANYON   FOG        7   4  87 W6        30.15R VSB 1/2 WCI  -3
CEDAR CITY     PTCLDY    16  12  84 CALM      30.17R
MILFORD        CLEAR     14  10  84 NW6       30.22R WCI   5
ST GEORGE      MOSUNNY   30  21  69 CALM      30.21R
HANKSVILLE     CLEAR     23  21  93 MISG      30.22R
KANAB          CLEAR     30  18  59 NW16      30.18S WCI  19
BLANDING       CLOUDY    33  28  79 CALM      30.21R

$$

REGIONAL REPORTS     COLORADO/ARIZONA

CITY           SKY/WX    TMP DP  RH WIND       PRES   REMARKS
CRAIG, CO      CLOUDY    14  12  92 CALM      30.23R FOG
GRAND JUNCTION CLEAR     23  21  92 CALM      30.19R
RIFLE, CO      CLOUDY    18  14  84 CALM      30.22R
MONTROSE, CO   CLOUDY    30  27  88 CALM      30.20R
CORTEZ, CO     CLOUDY    33  33 100 E3        30.14R FOG
COLORADO CITY    N/A     23  21  93 SE6       30.16R WCI  16
PAGE, AZ       CLEAR     33  20  58 CALM      30.15S
GRAND CANYON   CLEAR     22  21  96 CALM      30.11R
KINGMAN, AZ    CLEAR     31  21  66 E8        30.12R WCI  23
FLAGSTAFF, AZ  MOCLDY    27  24  89 E7        30.09R WCI  19

$$

REGIONAL REPORTS    NEVADA/IDAHO/WYOMING

CITY           SKY/WX    TMP DP  RH WIND       PRES   REMARKS
LAS VEGAS, NV  CLEAR     39  22  50 CALM      30.15R
ELY, NY        PTCLDY    -4  -8  83 S10       30.19R WCI -21
ELKO, NV       FLURRIES  14  11  87 NE6       30.26R WCI   5
POCATELLO, ID  CLOUDY    -3  -6  87 CALM      30.30R FOG
BURLEY, ID     PTCLDY     5  -1  76 NE9       30.27R WCI  -9
FORT BRIDGER,    N/A     -1  -2  94 CALM      30.16R
EVANSTON, WY   CLOUDY     8   2  76 S6        30.14R WCI  -2
ROCK SPRINGS,  FOG       -8 -12  83 S6        30.15S VSB 1/2 WCI -21

$$




USA.gov is the U.S. government's official web portal to all federal, state and local government web resources and services.